Lid_Strength_Index
-0 0 0 1 1 1 1 1 1 1 1 1 0 1 1 1 1 -1 -1 -1 -1 -1 -1 -1 -1 -1 -1 -1 -2 -2 -1 -1 -1 -1 -1 -2 -2 -2 -2 -2 -2 -2 -2
0 0 1 1 1 0 1 1 1 1 1 0 1 1 0 1 -0 -1 -1 -1 -1 -1 -1 -1 -1 -1 -1 -1 -2 -2 -1 -1 -1 -1 -1 -1 -1 -1 -2 -2 -2 -2 -2
0 1 1 1 1 0 -0 -0 -0 -0 0 1 1 0 -0 0 -0 -1 0 0 -0 -1 -1 -1 -1 -1 -1 -1 -1 -0 -1 -1 -1 0 -1 -1 -1 -1 -1 -1 -1 -1 -1
-1 1 1 0 0 -0 -0 0 0 0 0 0 1 0 0 -0 -0 -0 -0 0 -0 -1 -1 -1 -2 -1 -1 -1 -1 -1 -1 -1 -1 -1 -1 -0 -0 -1 -1 -1 -1 -1 -2
-0 0 0 0 -0 -0 1 2 2 2 1 1 1 0 1 0 0 0 0 0 -0 -1 -1 -1 -1 -2 -2 -1 -1 -1 -1 -1 -1 -1 -1 -1 -1 -1 -1 -1 -1 -1 -1
-1 -0 0 0 -0 1 2 2 2 2 2 1 1 1 1 0 0 -0 0 -0 -1 -1 -1 -1 -1 -1 -1 -1 -1 -1 -1 -1 -1 -1 -1 -1 -1 -1 -1 -1 -1 -1 -1
-1 0 0 -0 -0 0 1 1 2 3 2 1 2 2 1 1 1 0 -0 -0 -0 -1 -0 -0 -0 -1 -0 -1 -1 -1 -1 -1 -1 -1 -1 -1 -1 -1 -1 -1 -1 -1 -2
-0 -0 -0 -0 -0 0 0 1 2 2 1 1 3 3 5 3 1 1 0 0 0 -1 0 0 -0 -0 -1 -1 -2 -2 -2 -2 -1 -1 -1 -1 -1 -2 -1 -1 -1 -2 -2
-0 -1 -0 0 -0 -0 1 0 1 2 2 1 1 3 5 6 4 1 1 1 0 0 1 0 -0 -0 -1 -1 -1 -2 -2 -2 -2 -2 -1 -1 -1 -2 -2 -2 -1 -2 -2
-0 -0 -0 0 -0 -0 0 0 0 1 2 3 1 1 1 2 5 5 2 3 1 1 0 1 1 0 -1 -1 -2 -2 -2 -2 -2 -2 -2 -1 -1 -1 -1 -1 -2 -2 -2
-0 -1 -0 -0 0 0 -0 0 1 1 1 1 2 2 2 2 2 4 5 3 3 2 2 1 1 -0 -1 -1 -1 -1 -2 -1 -0 -1 -1 -2 -1 -1 -1 -1 -1 -2 -2
0 -0 -0 -0 -1 -0 -0 0 1 1 1 1 1 1 2 3 3 3 4 4 3 3 3 3 2 1 -0 -1 -1 -1 -2 -1 -1 0 0 -0 -0 -1 -1 -1 -2 -2 -2
0 0 0 -0 -0 -0 0 1 1 1 1 1 1 1 1 1 1 2 3 3 4 3 3 2 2 1 1 -1 -1 -1 -1 -1 -0 -0 -0 -0 -0 0 -1 -1 -0 -1 -2
0 -0 -0 -0 0 -0 0 1 1 1 2 2 4 2 4 3 2 1 2 3 4 3 3 3 1 1 1 1 -1 -1 -1 -1 -0 0 0 0 -0 -1 -1 -1 -1 -1 -2
0 0 0 -0 -0 0 1 1 2 2 5 4 5 3 3 3 3 3 3 3 3 5 5 3 2 1 0 -1 -1 -1 -0 0 -0 0 1 1 0 -1 -1 -1 -1 -1 -1
-0 0 0 -0 0 0 1 2 2 4 5 5 5 2 3 3 3 3 3 3 4 4 5 3 3 2 0 -1 -1 -1 0 1 0 1 1 1 1 1 -0 -0 -0 -0 -0
0 0 1 0 0 0 1 2 3 5 6 6 5 3 3 3 4 4 4 4 3 3 4 3 3 2 0 0 -0 0 1 2 1 1 1 1 1 1 1 1 1 1 1
-0 0 0 0 0 0 1 2 3 6 6 6 5 3 4 4 5 5 5 5 5 4 4 4 4 3 1 1 1 2 2 2 2 2 2 2 2 2 2 2 1 2 2
0 0 0 0 0 0 1 1 3 6 7 7 6 4 5 6 7 7 7 5 5 5 5 5 5 4 3 3 2 2 2 2 2 1 2 2 2 2 2 2 2 3 3
1 0 0 0 0 0 1 2 5 8 8 6 6 4 7 7 8 7 7 6 6 5 5 5 5 5 4 3 3 3 3 3 3 3 3 2 3 2 2 2 2 2 3
0 0 0 0 0 1 2 4 6 8 9 7 6 8 8 7 6 6 6 6 6 6 6 5 5 5 5 4 4 4 5 3 4 4 4 3 3 3 2 2 2 1 3
1 1 1 1 1 1 7 7 8 10 8 8 6 6 5 5 5 4 4 4 5 6 6 5 6 6 6 5 6 5 5 5 6 3 4 5 4 3 3 2 2 1 2
1 1 1 1 1 1 8 8 8 11 9 8 6 7 7 5 4 4 4 4 4 5 5 5 5 5 5 5 5 4 5 5 5 4 4 6 4 5 3 3 2 2 2
1 1 1 1 1 3 9 10 9 11 10 10 8 7 6 6 6 6 6 6 6 6 5 4 4 3 3 3 4 4 4 4 4 4 4 6 5 5 4 3 3 2 3
1 1 1 1 2 6 11 11 10 11 12 11 9 6 6 6 5 6 6 7 7 6 4 4 3 3 4 4 4 4 5 4 5 5 4 5 5 5 5 4 3 2 3
1 1 1 1 6 7 12 12 11 12 12 11 8 6 6 6 6 6 5 5 6 7 5 4 4 4 4 4 4 4 5 6 6 6 4 6 6 5 6 4 4 3 2